Location: Chiroubles
(46.1812°N, 4.6660°E)
Time: 00:34:47
(UTC+00:00)

Cosmos 1513 Rocket - Pass Details

Date: 15 August 2020
Orbit: 939 x 1009 km, 82.9° (Epoch: 19 September)

Event Time Altitude Azimuth Distance (km) Brightness Sun altitude
Exits shadow 23:07:09 78° 98° (E) 1,037 4.4 -29.5°
Maximum altitude 23:07:11 78° 95° (E) 1,037 4.4 -29.5°
Drops below altitude 10° 23:13:37 10° 11° (N) 2,796 7.7 -29.7°
Sets 23:16:09 0° 10° (N) 3,746 8.6 -29.8°
